Volver al catálogo

RASSVET-2 NO. 3

ActivoComunicacionesSSO
NORAD 59781·PAYLOAD·🇷🇺 Russia
Este nombre de satélite aún no ha sido confirmado por fuentes oficiales.

Lanzado May 16, 2024 desde Plesetsk Cosmodrome

Loading…

Próximos Pases (próximas 24 horas)

TLE

ActualizadoSource: Space-Track

Época: Sep 14, 2026, 14:21 UTC

1 59781U 24092J   26257.59857012  .00000118  00000-0  60984-4 0  9997
2 59781  98.6796  16.5846 0011195 310.4040  49.6165 14.31875546121690

Sigue RASSVET-2 NO. 3 en tiempo real con AllMySat

Download on the App Store